Weather History for Deming, NM

Change the Weather History Date:

Saturday, February 2, 2013

  Actual Average Record
Temperature  
Mean Temperature 47 °F 45 °F  
Max Temperature 66 °F 60 °F 73 °F (1987)
Min Temperature 27 °F 30 °F 3 °F (2011)
Degree Days  
Heating Degree Days 18    
Moisture  
Dew Point 15 °F    
Average Humidity 39    
Maximum Humidity 68    
Minimum Humidity 10    
Precipitation  
Precipitation 0.00 in 0.02 in 0.24 in (2002)
Month to date precipitation 0.00 0.04  
Year to date precipitation 0.26 0.65  
Sea Level Pressure  
Sea Level Pressure 30.23 in    
Wind  
Wind Speed 7 mph (ENE)    
Max Wind Speed 18 mph    
Max Gust Speed 23 mph    
Visibility 10 miles    
Events      
T = Trace of Precipitation, MM = Missing Value Source: NWS Daily Summary

Daily Weather History Graph

Daily Weather History Graph

Search for Another Location

Airport:

Trip Planner

Search our weather history database for the weather conditions in past years. The results will help you decide how hot, cold, wet, or windy it might be!

Date:

Astronomy

Feb. 02, 2013 Rise Set
Actual Time 7:03 AM MST 5:45 PM MST
Civil Twilight 6:38 AM MST 6:11 PM MST
Nautical Twilight 6:09 AM MST 6:40 PM MST
Astronomical Twilight 5:40 AM MST 7:09 PM MST
Moon No Moon Rise 10:43 AM MST (2/2)
Length of Visible Light 11h 32m
Length of Day
10h 41m
Waning Gibbous, 59% of the Moon is Illuminated
Feb 2
Waning Gibbous
Feb 3
Last Quarter
Feb 10
New
Feb 17
First Quarter
Feb 25
Full

Hourly Weather History & Observations

Time (MST) Temp. Windchill Dew Point Humidity Pressure Visibility Wind Dir Wind Speed Gust Speed Precip Events Conditions
12:53 AM 30.0 °F - 17.1 °F 59% 30.20 in 10.0 mi Calm Calm - N/A   Clear
1:53 AM 33.1 °F - 19.0 °F 56% 30.19 in 10.0 mi Calm Calm - N/A   Clear
2:53 AM 32.0 °F 28.7 °F 19.9 °F 61% 30.20 in 10.0 mi WNW 3.5 mph - N/A   Clear
3:53 AM 28.9 °F 25.2 °F 18.0 °F 64% 30.21 in 10.0 mi NNW 3.5 mph - N/A   Clear
4:53 AM 27.0 °F 23.0 °F 18.0 °F 69% 30.23 in 10.0 mi WNW 3.5 mph - N/A   Clear
5:53 AM 27.0 °F - 18.0 °F 69% 30.25 in 10.0 mi Calm Calm - N/A   Clear
6:53 AM 28.9 °F 25.2 °F 17.1 °F 61% 30.27 in 10.0 mi NE 3.5 mph - N/A   Clear
7:53 AM 41.0 °F 34.3 °F 15.1 °F 35% 30.27 in 10.0 mi ENE 11.5 mph - N/A   Clear
8:53 AM 50.0 °F - 17.1 °F 27% 30.28 in 10.0 mi NE 16.1 mph 23.0 mph N/A   Clear
9:53 AM 55.0 °F - 17.1 °F 23% 30.28 in 10.0 mi NE 17.3 mph - N/A   Clear
10:53 AM 57.9 °F - 16.0 °F 19% 30.28 in 10.0 mi ENE 13.8 mph - N/A   Clear
11:53 AM 60.1 °F - 15.1 °F 17% 30.27 in 10.0 mi East 10.4 mph - N/A   Clear
12:53 PM 63.0 °F - 12.0 °F 14% 30.24 in 10.0 mi East 8.1 mph - N/A   Clear
1:53 PM 64.0 °F - 10.0 °F 12% 30.19 in 10.0 mi ESE 6.9 mph - N/A   Clear
2:53 PM 66.0 °F - 8.1 °F 10% 30.18 in 10.0 mi SE 8.1 mph - N/A   Clear
3:53 PM 64.9 °F - 9.0 °F 11% 30.18 in 10.0 mi East 9.2 mph - N/A   Clear
4:53 PM 63.0 °F - 10.9 °F 13% 30.19 in 10.0 mi East 8.1 mph - N/A   Clear
5:53 PM 55.0 °F - 10.9 °F 17% 30.22 in 10.0 mi East 6.9 mph - N/A   Clear
6:53 PM 54.0 °F - 12.0 °F 19% 30.23 in 10.0 mi SSW 3.5 mph - N/A   Clear
7:53 PM 51.1 °F - 16.0 °F 25% 30.22 in 10.0 mi Calm Calm - N/A   Clear
8:53 PM 42.1 °F 37.1 °F 14.0 °F 32% 30.23 in 10.0 mi NNE 8.1 mph - N/A   Clear
9:53 PM 41.0 °F 38.0 °F 12.9 °F 32% 30.22 in 10.0 mi North 4.6 mph - N/A   Clear
10:53 PM 41.0 °F 37.1 °F 12.9 °F 32% 30.20 in 10.0 mi NE 5.8 mph - N/A   Clear
11:53 PM 39.0 °F 36.8 °F 12.9 °F 34% 30.19 in 10.0 mi ENE 3.5 mph - N/A   Clear